Cloud_Cover
100 100 100 100 100 100 100 5 39 100 75 68 66 54 88 100 85 100 56 100 100 100
100 100 100 100 100 100 32 47 61 86 70 72 100 74 88 93 59 87 76 74 100 100
100 100 100 100 100 100 100 99 31 50 88 51 83 74 98 68 26 100 74 78 99 99
29 97 95 100 100 100 100 100 65 77 100 100 100 99 100 90 100 100 99 90 74 56
49 100 100 34 28 89 100 100 16 53 77 89 100 100 100 99 100 100 100 100 100 91
47 42 18 5 0 11 100 95 44 100 100 97 100 100 100 100 100 100 100 100 96 84
15 3 5 0 4 5 52 100 97 100 100 100 100 100 100 100 100 100 100 100 100 99
0 0 1 5 5 22 4 5 84 19 74 97 100 100 100 100 100 100 100 100 100 100
5 31 2 3 0 10 5 5 4 0 0 5 15 28 100 100 100 100 100 100 100 100
2 2 6 0 0 0 1 2 4 3 0 0 0 0 0 9 93 100 100 100 100 100
0 0 10 5 19 5 5 5 5 5 5 5 5 0 0 2 5 98 80 99 100 100
0 3 10 5 5 5 5 5 5 10 8 22 5 5 4 0 1 10 9 95 99 100
4 98 89 80 86 100 56 8 7 5 11 7 5 5 5 5 5 31 40 37 93 100
100 100 100 100 100 100 100 100 100 100 94 70 60 69 73 19 26 5 49 100 100 100